Rome, NY

9:09 PM EST on December 17, 2017 (GMT -0500)
Griffiss

Weather History for KRME - January, 2013

Change the Weather History Date:

Wednesday, January 2, 2013

  Actual Average Record
Temperature  
Mean Temperature 12 °F -  
Max Temperature 24 °F 32 °F 46 °F (2011)
Min Temperature -2 °F 18 °F -2 °F (1981)
Degree Days  
Heating Degree Days 52    
Moisture  
Dew Point 8 °F    
Average Humidity 81    
Maximum Humidity 93    
Minimum Humidity 59    
Precipitation  
Precipitation 0.01 in - - ()
Sea Level Pressure  
Sea Level Pressure 30.05 in    
Wind  
Wind Speed 4 mph (NW)    
Max Wind Speed 15 mph    
Max Gust Speed -    
Visibility 6 miles    
Events Fog , Snow    
Averages and records for this station are not official NWS values.
T = Trace of Precipitation, MM = Missing Value Source: NWS Daily Summary

Daily Weather History Graph

Daily Weather History Graph

Search for Another Location

Airport or City:

Trip Planner

Search our weather history database for the weather conditions in past years. The results will help you decide how hot, cold, wet, or windy it might be!

Date:

Astronomy

Jan. 02, 2013 Rise Set
Actual Time 7:33 AM EST 4:38 PM EST
Civil Twilight 7:01 AM EST 5:10 PM EST
Nautical Twilight 6:25 AM EST 5:46 PM EST
Astronomical Twilight 5:51 AM EST 6:20 PM EST
Moon 10:17 PM EST (1/2) 10:05 AM EST (1/2)
Length of Visible Light 10h 08m
Length of Day
9h 04m
Waning Gibbous, 75% of the Moon is Illuminated
Jan 2
Waning Gibbous
Jan 4
Last Quarter
Jan 11
New
Jan 18
First Quarter
Jan 26
Full

Hourly Weather History & Observations

Time (EST) Temp. Windchill Dew Point Humidity Pressure Visibility Wind Dir Wind Speed Gust Speed Precip Events Conditions
12:53 AM 3.9 °F -3.4 °F 1.0 °F 88% 30.04 in 10.0 mi North 3.5 mph - N/A   Mostly Cloudy
1:53 AM 3.9 °F -3.4 °F 1.0 °F 88% 30.03 in 10.0 mi ESE 3.5 mph - N/A   Mostly Cloudy
2:53 AM 5.0 °F - 1.9 °F 87% 30.03 in 8.0 mi Calm Calm - 0.00 in Snow Light Snow
3:53 AM 7.0 °F - 3.0 °F 84% 30.00 in 6.0 mi Calm Calm - 0.00 in Snow Light Snow
4:39 AM 9.0 °F - 5.0 °F 84% 29.97 in 6.0 mi Calm Calm - 0.00 in Snow Light Snow
4:48 AM 8.6 °F - 6.8 °F 92% 29.98 in 2.5 mi Calm Calm - 0.00 in Snow Light Snow
4:49 AM 9.0 °F - 6.1 °F 88% 30.00 in 2.5 mi Calm Calm - 0.00 in Snow Light Snow
5:09 AM 9.0 °F - 6.1 °F 88% 29.97 in 3.0 mi Calm Calm - 0.00 in Snow Light Snow
5:32 AM 10.0 °F 3.6 °F 7.0 °F 87% 29.96 in 1.8 mi SE 3.5 mph - 0.00 in Snow Light Snow
5:40 AM 9.0 °F 2.4 °F 6.1 °F 88% 29.96 in 2.5 mi SE 3.5 mph - 0.00 in Snow Light Snow
5:53 AM 10.0 °F 3.6 °F 7.0 °F 87% 29.99 in 5.0 mi SSE 3.5 mph - 0.00 in Snow Light Snow
6:11 AM 10.0 °F 1.8 °F 7.0 °F 87% 29.95 in 2.5 mi SE 4.6 mph - 0.00 in Snow Light Snow
6:18 AM 10.0 °F 3.6 °F 7.0 °F 87% 29.96 in 3.0 mi SSE 3.5 mph - 0.00 in Snow Light Snow
6:25 AM 10.9 °F - 8.1 °F 88% 29.96 in 2.0 mi Calm Calm - 0.00 in Snow Light Snow
6:43 AM 10.9 °F - 8.1 °F 88% 29.96 in 2.0 mi Calm Calm - 0.00 in Snow Light Snow
6:53 AM 10.9 °F - 8.1 °F 88% 29.99 in 3.0 mi Calm Calm - 0.00 in Snow Light Snow
7:53 AM 12.9 °F - 10.0 °F 88% 29.99 in 8.0 mi Calm Calm - 0.00 in   Overcast
8:41 AM 14.0 °F 6.5 °F 10.9 °F 88% 29.99 in 5.0 mi NW 4.6 mph - 0.00 in Snow Light Snow
8:48 AM 14.0 °F 5.1 °F 12.2 °F 93% 29.99 in 1.5 mi NW 5.8 mph - 0.00 in Snow Light Snow
8:51 AM 15.8 °F 8.6 °F 12.2 °F 86% 29.99 in 0.8 mi NW 4.6 mph - 0.00 in Snow Light Snow
8:53 AM 15.1 °F 6.4 °F 12.9 °F 91% 30.02 in 0.5 mi NW 5.8 mph - 0.00 in Fog , Snow Snow
9:33 AM 18.0 °F 8.7 °F 16.0 °F 92% 30.01 in 1.0 mi NW 6.9 mph - 0.01 in Snow Light Snow
9:53 AM 19.0 °F 10.0 °F 16.0 °F 88% 30.04 in 1.2 mi WNW 6.9 mph - 0.01 in Snow Light Snow
10:38 AM 21.0 °F 9.3 °F 17.1 °F 85% 30.02 in 2.0 mi West 11.5 mph - 0.00 in Snow Light Snow
10:53 AM 21.9 °F 11.0 °F 18.0 °F 85% 30.04 in 2.5 mi West 10.4 mph - 0.00 in Snow Light Snow
11:19 AM 21.9 °F 11.7 °F 18.0 °F 85% 30.02 in 1.5 mi WNW 9.2 mph - 0.00 in Snow Light Snow
11:41 AM 21.9 °F 9.8 °F 18.0 °F 85% 30.01 in 2.5 mi West 12.7 mph - 0.00 in Snow Light Snow
11:48 AM 21.2 °F 10.1 °F 17.6 °F 86% 30.01 in 4.0 mi West 10.4 mph - 0.00 in Snow Light Snow
11:53 AM 21.9 °F 11.7 °F 19.0 °F 89% 30.04 in 4.0 mi West 9.2 mph - 0.00 in Snow Light Snow
12:53 PM 24.1 °F 13.1 °F 18.0 °F 77% 30.04 in 10.0 mi West 11.5 mph - 0.00 in   Overcast
1:53 PM 23.0 °F 11.1 °F 14.0 °F 68% 30.07 in 10.0 mi NW 12.7 mph - N/A   Overcast
2:53 PM 21.9 °F 10.4 °F 10.9 °F 63% 30.10 in 10.0 mi NNW 11.5 mph - N/A   Overcast
3:53 PM 19.0 °F 11.1 °F 9.0 °F 65% 30.14 in 10.0 mi NNE 5.8 mph - N/A   Overcast
4:53 PM 17.1 °F 6.6 °F 6.1 °F 62% 30.17 in 10.0 mi North 8.1 mph - N/A   Overcast
5:53 PM 12.0 °F -2.0 °F 1.0 °F 61% 30.20 in 10.0 mi NNE 11.5 mph - N/A   Overcast
6:53 PM 9.0 °F -4.2 °F -2.9 °F 59% 30.22 in 10.0 mi North 9.2 mph - N/A   Overcast
7:53 PM 6.1 °F -11.6 °F -2.9 °F 67% 30.23 in 10.0 mi North 15.0 mph - N/A   Overcast
8:53 PM 3.0 °F -10.5 °F -6.0 °F 66% 30.25 in 10.0 mi North 8.1 mph - N/A   Clear
9:53 PM 1.9 °F -5.6 °F -7.1 °F 66% 30.27 in 10.0 mi North 3.5 mph - N/A   Overcast
10:53 PM 1.0 °F -8.7 °F -9.0 °F 63% 30.28 in 10.0 mi North 4.6 mph - N/A   Partly Cloudy
11:53 PM -2.0 °F -12.2 °F -9.0 °F 72% 30.30 in 10.0 mi NW 4.6 mph - N/A   Scattered Clouds